Stations météo

réclame
Mon MeteoGroup
Falsterbo A, Suède (2615): Température de l'air & dewpoint: 12.01.2020 02:00:00 - 18.01.2020 02:00:00 (CET)Falsterbo A, Suède (2615): Vitesse du vent & gusts: 12.01.2020 02:00:00 - 18.01.2020 02:00:00 (CET)Falsterbo A, Suède (2615): Direction du vent: 12.01.2020 02:00:00 - 18.01.2020 02:00:00 (CET)Falsterbo A, Suède (2615): reduced air pressure: 12.01.2020 02:00:00 - 18.01.2020 02:00:00 (CET)Falsterbo A, Suède (2615): visibility: 12.01.2020 02:00:00 - 18.01.2020 02:00:00 (CET)Falsterbo A, Suède (2615): Quantités de précipitations: 12.01.2020 02:00:00 - 18.01.2020 02:00:00 (CET)
Date & Time tt [°C] td [°C] ff [km/h] ff [knt] fx [km/h] fx [knt] dd ppp [hPa] vv [km] rr [mm]
18.01.2020 02:00:00 6,1 6,0 19 10 26 14 SW 1010,9 3,2 0,6
18.01.2020 01:00:00 5,9 5,6 21 11 26 14 SW 1010,7 5 0,1
18.01.2020 00:00:00 5,9 5,0 22 12 32 18 SSW 1010,7 9 0,0
17.01.2020 23:00:00 5,7 4,7 16 8 29 15 S 1011,1 10 0,0
17.01.2020 22:00:00 5,8 4,8 22 12 30 16 SSW 1011,3 12 0,0
17.01.2020 21:00:00 5,1 4,5 22 12 36 19 S 1011,7 10 0,0
17.01.2020 20:00:00 5,4 4,4 29 16 37 20 S 1012,1 11 0,0
17.01.2020 19:00:00 5,7 4,7 30 16 40 22 S 1012,6 12 0,0
17.01.2020 18:00:00 5,8 4,8 31 17 39 21 S 1013,1 12 0,0
17.01.2020 17:00:00 5,5 4,5 26 14 35 19 S 1013,4 10 0,0
17.01.2020 16:00:00 5,8 4,3 21 11 29 16 SSE 1013,9 13 0,0
17.01.2020 15:00:00 6,3 4,5 23 12 32 17 SSE 1014,5 15 0,0
17.01.2020 14:00:00 6,4 4,6 23 12 32 18 SSE 1015,1 16 0,0
17.01.2020 13:00:00 6,6 4,8 29 16 41 22 S 1016,0 17 0,0
17.01.2020 12:00:00 6,7 4,9 31 17 44 24 S 1017,0 16 0,0
17.01.2020 11:00:00 6,2 5,0 27 15 40 22 S 1017,9 13 0,0
17.01.2020 10:00:00 5,7 5,3 35 19 42 23 S 1018,3 11 0,0
17.01.2020 09:00:00 5,2 4,9 33 18 40 21 S 1018,6 - 0,0
17.01.2020 08:00:00 5,1 4,8 29 16 38 21 S 1019,3 10 0,0
17.01.2020 07:00:00 5,1 4,8 27 15 35 19 S 1019,7 9 0,0
17.01.2020 06:00:00 5,1 5,0 27 14 35 19 S 1020,0 10 0,0
17.01.2020 05:00:00 5,1 4,8 27 15 34 18 S 1020,9 12 0,0
17.01.2020 04:00:00 5,3 4,9 28 15 35 19 S 1021,2 16 0,0
17.01.2020 03:00:00 5,4 4,8 29 16 36 20 S 1021,9 17 0,0
17.01.2020 02:00:00 5,5 4,8 29 16 37 20 S 1022,4 25 0,0
17.01.2020 01:00:00 5,4 5,0 24 13 36 20 S 1023,2 26 0,0
17.01.2020 00:00:00 5,3 5,0 26 14 34 18 S 1023,8 28 0,0
16.01.2020 23:00:00 5,1 5,0 22 12 32 17 S 1024,6 18 0,0
16.01.2020 22:00:00 5,0 4,9 25 14 31 17 S 1024,8 16 0,0
16.01.2020 21:00:00 4,7 4,6 18 10 25 13 S 1025,2 12 0,0
16.01.2020 20:00:00 5,0 4,9 22 12 27 15 SSW 1025,3 9 0,0
16.01.2020 19:00:00 5,4 5,1 22 12 32 18 SW 1025,6 7 0,0
16.01.2020 18:00:00 5,7 4,8 27 14 32 17 SW 1025,4 10 0,0
16.01.2020 17:00:00 5,7 4,5 18 10 35 19 SW 1025,5 10 0,0
16.01.2020 16:00:00 6,1 4,6 29 16 37 20 WSW 1025,4 14 0,0
16.01.2020 15:00:00 6,2 4,7 27 14 40 21 WSW 1025,1 14 0,0
16.01.2020 14:00:00 6,4 4,7 34 18 39 21 WSW 1024,3 14 0,0
16.01.2020 13:00:00 6,7 4,7 29 16 42 23 SW 1024,3 17 0,0
16.01.2020 12:00:00 6,7 4,9 34 19 43 23 WSW 1023,7 16 0,0
16.01.2020 11:00:00 6,7 5,0 36 19 43 23 WSW 1023,5 17 0,0
16.01.2020 10:00:00 6,5 5,0 35 19 46 25 WSW 1022,7 16 0,0
16.01.2020 09:00:00 6,4 4,9 35 19 48 26 WSW 1021,6 16 0,0
16.01.2020 08:00:00 6,4 4,9 38 21 47 26 WSW 1020,5 17 0,0
16.01.2020 07:00:00 6,6 4,9 35 19 45 24 WSW 1019,8 17 0,0
16.01.2020 06:00:00 6,4 5,2 34 18 41 22 WSW 1018,9 16 0,0
16.01.2020 05:00:00 6,2 5,0 34 18 44 24 WSW 1018,3 17 0,0
16.01.2020 04:00:00 6,4 4,6 34 18 46 25 WSW 1017,6 19 0,0
16.01.2020 03:00:00 6,5 4,2 35 19 53 29 WSW 1016,5 24 0,0
16.01.2020 02:00:00 6,4 4,2 40 22 51 27 WSW 1015,9 36 0,0
16.01.2020 01:00:00 6,3 4,1 31 17 40 22 WSW 1014,7 50 0,0
16.01.2020 00:00:00 6,1 4,3 27 14 34 18 W 1013,2 50 0,0
15.01.2020 23:00:00 6,0 4,8 21 12 46 25 W 1012,1 50 0,0
15.01.2020 22:00:00 6,7 4,5 38 20 48 26 WNW 1010,2 40 0,0
15.01.2020 21:00:00 7,8 5,9 28 15 38 21 SW 1008,6 26 0,0
15.01.2020 20:00:00 7,9 6,0 24 13 35 19 SW 1008,0 23 0,0
15.01.2020 19:00:00 8,1 5,7 31 17 40 21 SSW 1007,6 42 0,0
15.01.2020 18:00:00 8,0 5,6 26 14 38 20 SSW 1006,9 45 0,0
15.01.2020 17:00:00 8,3 5,6 30 16 39 21 SSW 1006,5 46 0,0
15.01.2020 16:00:00 8,0 5,6 27 14 34 19 SSW 1006,6 39 0,0
15.01.2020 15:00:00 8,0 5,8 28 15 37 20 SSW 1006,5 37 0,0
15.01.2020 14:00:00 8,5 6,1 27 15 39 21 SSW 1006,3 42 0,0
15.01.2020 13:00:00 8,6 6,0 33 18 39 21 SSW 1006,2 41 0,0
15.01.2020 12:00:00 8,3 6,3 34 18 48 26 SSW 1005,9 43 0,0
15.01.2020 11:00:00 8,5 6,1 37 20 53 28 SSW 1005,3 42 0,0
15.01.2020 10:00:00 8,4 6,2 43 23 52 28 SSW 1004,8 43 0,0
15.01.2020 09:00:00 8,1 6,4 37 20 47 25 SSW 1004,0 35 0,0
15.01.2020 08:00:00 8,1 6,4 38 20 56 30 SSW 1003,4 38 0,0
15.01.2020 07:00:00 8,2 6,2 45 25 57 31 SSW 1003,2 38 0,0
15.01.2020 06:00:00 8,1 6,6 40 22 59 32 SSW 1002,7 34 0,0
15.01.2020 05:00:00 8,2 6,2 45 24 63 34 SSW 1002,0 41 0,0
15.01.2020 04:00:00 8,6 6,0 48 26 65 35 SSW 1001,8 45 0,0
15.01.2020 03:00:00 8,8 6,2 52 28 64 35 SSW 1001,6 50 0,0
15.01.2020 02:00:00 8,4 6,2 48 26 64 35 SSW 1001,9 36 0,0
15.01.2020 01:00:00 8,3 5,8 48 26 60 33 SSW 1001,8 50 0,0
15.01.2020 00:00:00 8,3 5,8 49 26 63 34 SSW 1001,8 49 0,0
14.01.2020 23:00:00 7,5 6,3 42 23 50 27 S 1001,8 50 0,0
14.01.2020 22:00:00 7,2 6,9 40 21 48 26 S 1002,0 49 0,0
14.01.2020 21:00:00 6,9 6,8 36 20 44 24 S 1002,7 36 0,0
14.01.2020 20:00:00 6,5 6,4 30 16 37 20 S 1003,4 11 -
14.01.2020 19:00:00 6,2 6,1 28 15 34 18 S 1004,1 19 0,0
14.01.2020 18:00:00 5,8 5,5 24 13 31 17 SSW 1004,4 21 0,0
14.01.2020 17:00:00 5,9 5,3 25 13 32 18 SW 1004,3 28 0,0
14.01.2020 16:00:00 5,8 4,6 17 9 34 18 SW 1003,7 26 0,0
14.01.2020 15:00:00 6,5 5,4 28 15 47 26 SW 1003,1 40 0,0
14.01.2020 14:00:00 7,0 6,9 39 21 50 27 SW 1002,2 24 0,0
14.01.2020 13:00:00 6,7 6,6 41 22 60 32 SW 1001,6 12 0,1
14.01.2020 12:00:00 6,6 6,5 45 24 58 31 SSW 1001,2 13 0,7
14.01.2020 11:00:00 6,1 6,0 43 23 55 30 SSW 1001,6 7 0,6
14.01.2020 10:00:00 5,5 5,4 44 24 57 31 S 1001,9 6 0,7
14.01.2020 09:00:00 5,1 5,0 44 24 60 32 S 1002,2 6 0,4
14.01.2020 08:00:00 5,4 4,2 46 25 63 34 S 1002,8 15 0,0
14.01.2020 07:00:00 5,2 4,2 44 24 60 33 S 1003,5 13 0,0
14.01.2020 06:00:00 4,8 4,2 44 24 59 32 S 1004,0 12 0,0
14.01.2020 05:00:00 4,9 4,0 45 24 56 31 S 1005,3 15 0,0
14.01.2020 04:00:00 4,8 3,9 43 23 56 30 S 1006,9 17 0,0
14.01.2020 03:00:00 4,9 4,5 41 22 51 28 S 1007,7 17 0,0
14.01.2020 02:00:00 4,9 4,8 37 20 46 25 S 1008,5 14 0,0
14.01.2020 01:00:00 4,9 4,8 34 18 45 24 S 1010,0 12 0,0
14.01.2020 00:00:00 4,8 4,7 32 18 39 21 S 1011,2 10 0,0
13.01.2020 23:00:00 4,9 4,8 26 14 36 19 S 1011,8 8 0,0
13.01.2020 22:00:00 5,1 5,0 29 16 37 20 SSW 1012,4 7 0,0
13.01.2020 21:00:00 5,4 5,3 26 14 34 19 S 1012,9 7 0,0
13.01.2020 20:00:00 5,4 5,3 24 13 31 17 SSW 1013,7 8 0,0
13.01.2020 19:00:00 5,4 5,1 19 11 24 13 SSW 1014,3 7 0,0
13.01.2020 18:00:00 5,3 4,1 15 8 31 17 SSW 1014,6 19 0,0
13.01.2020 17:00:00 5,6 5,2 18 10 24 13 SSW 1014,6 19 0,0
13.01.2020 16:00:00 5,5 4,8 18 10 22 12 SSW 1014,7 13 0,0
13.01.2020 15:00:00 5,8 4,1 19 10 29 16 WSW 1015,2 32 0,0
13.01.2020 14:00:00 5,7 4,8 20 11 34 18 SW 1015,4 16 0,0
13.01.2020 13:00:00 5,8 4,4 24 13 35 19 WSW 1015,9 20 0,0
13.01.2020 12:00:00 5,8 5,2 25 14 31 17 WSW 1016,3 17 0,0
13.01.2020 11:00:00 5,7 5,3 24 13 29 16 WSW 1016,8 15 0,0
13.01.2020 10:00:00 5,4 5,0 28 15 34 18 WSW 1016,4 16 0,0
13.01.2020 09:00:00 5,3 4,9 29 16 35 19 WSW 1016,6 16 0,0
13.01.2020 08:00:00 5,4 5,0 23 12 29 16 WSW 1015,8 21 0,0
13.01.2020 07:00:00 5,7 5,4 23 13 30 16 W 1015,2 24 0,0
13.01.2020 06:00:00 5,8 5,7 26 14 31 17 WSW 1015,0 22 0,0
13.01.2020 05:00:00 5,6 5,5 24 13 32 17 W 1015,0 21 0,0
13.01.2020 04:00:00 5,6 5,5 26 14 32 17 W 1014,4 14 0,0
13.01.2020 03:00:00 5,9 5,8 29 16 37 20 W 1014,1 16 0,0
13.01.2020 02:00:00 5,6 5,5 22 12 34 18 W 1013,7 9 0,0
13.01.2020 01:00:00 5,9 5,8 32 17 40 21 W 1013,1 13 0,0
13.01.2020 00:00:00 5,8 5,7 25 13 31 17 WNW 1012,2 48 0,0
12.01.2020 23:00:00 5,3 5,2 14 7 18 10 W 1011,1 45 0,0
12.01.2020 22:00:00 4,9 4,8 9 5 16 9 W 1010,3 25 0,2
12.01.2020 21:00:00 5,2 5,1 15 8 22 12 SW 1009,9 8 0,7
12.01.2020 20:00:00 5,2 5,1 19 10 26 14 SW 1010,1 7 1,2
12.01.2020 19:00:00 5,2 5,1 24 13 34 18 WSW 1010,5 6 2,2
12.01.2020 18:00:00 5,2 5,1 27 14 39 21 SW 1010,9 6 1,5
12.01.2020 17:00:00 5,3 5,2 32 17 40 21 WSW 1011,1 6 0,6
12.01.2020 16:00:00 5,4 5,3 31 17 43 23 WSW 1011,0 10 0,2
12.01.2020 15:00:00 5,5 5,4 36 20 49 26 WSW 1011,4 6 0,7
12.01.2020 14:00:00 5,5 5,4 38 21 51 28 WSW 1011,3 4,6 0,1
12.01.2020 13:00:00 5,7 5,6 42 23 53 28 WSW 1011,9 16 0,0
12.01.2020 12:00:00 5,9 5,8 42 23 51 28 WSW 1012,2 16 0,0
12.01.2020 11:00:00 5,9 5,8 43 23 54 29 WSW 1012,6 10 0,0
12.01.2020 10:00:00 5,8 5,7 43 23 55 30 WSW 1012,4 9 0,0
12.01.2020 09:00:00 5,8 5,7 43 23 55 30 WSW 1012,5 7 -
12.01.2020 08:00:00 5,8 5,7 43 23 54 29 SW 1012,8 5 0,0
12.01.2020 07:00:00 5,8 5,7 43 23 56 31 SW 1013,0 8 0,0
12.01.2020 06:00:00 6,0 5,6 44 24 54 29 SW 1013,6 9 0,0
12.01.2020 05:00:00 6,0 5,1 44 24 59 32 SW 1014,0 12 0,0
12.01.2020 04:00:00 6,2 4,5 48 26 59 32 WSW 1014,5 16 0,0
12.01.2020 03:00:00 6,1 4,3 44 24 57 31 SW 1015,1 16 0,0
12.01.2020 02:00:00 6,2 3,9 45 25 62 34 WSW 1015,9 17 0,0

tt = Température de l'air
td = dewpoint
ff = Vitesse du vent
fx = gusts
dd = Direction du vent
ppp = reduced air pressure
vv = visibility
rr = Quantités de précipitations

stations d'obs. à proximité